Columbia, MO

5:09 PM CDT on October 22, 2019 (GMT -0500)
Columbia Regional

Weather History for KCOU - September, 2019

Change the Weather History Date:

Monday, September 16, 2019

  Actual Average Record
Temperature  
Mean Temperature 82 °F 68 °F  
Max Temperature 94 °F 79 °F 99 °F (1954)
Min Temperature 69 °F 56 °F 40 °F (1916)
Degree Days  
Heating Degree Days 0 2  
Month to date heating degree days 0 12  
Since 1 July heating degree days 0 14  
Cooling Degree Days 17 4  
Month to date cooling degree days 179 103  
Year to date cooling degree days 1409 1186  
Growing Degree Days 31 (Base 50)    
Moisture  
Dew Point 69 °F    
Average Humidity 69    
Maximum Humidity 93    
Minimum Humidity 44    
Precipitation  
Precipitation 0.00 in 0.12 in 5.98 in (1905)
Month to date precipitation 1.27 2.06  
Year to date precipitation 34.06 31.81  
Snow  
Snow 0.00 in 0.00 in 0.00 in (2015)
Month to date snowfall 0.0 0.0  
Since 1 July snowfall 0.0 0.0  
Since 1 September snowfall 0.0 0.0  
Snow Depth 0.00 in    
Sea Level Pressure  
Sea Level Pressure 30.06 in    
Wind  
Wind Speed 4 mph (South)    
Max Wind Speed 9 mph    
Max Gust Speed 12 mph    
Visibility 10 miles    
Events      
T = Trace of Precipitation, MM = Missing Value Source: NWS Daily Summary

Daily Weather History Graph

Daily Weather History Graph

Search for Another Location

Airport or City:

Astronomy

Sep. 16, 2019 Rise Set
Actual Time 6:51 AM CDT 7:15 PM CDT
Civil Twilight 6:24 AM CDT 7:42 PM CDT
Nautical Twilight 5:52 AM CDT 8:13 PM CDT
Astronomical Twilight 5:20 AM CDT 8:45 PM CDT
Moon 8:52 PM CDT (9/16) 8:57 AM CDT (9/16)
Length of Visible Light 13h 18m
Length of Day
12h 24m
Waning Gibbous, 94% of the Moon is Illuminated
Sep 16
Waning Gibbous
Sep 21
Last Quarter
Sep 28
New
Oct 5
First Quarter
Oct 13
Full

Hourly Weather History & Observations

Time (CDT) Temp. Heat Index Dew Point Humidity Pressure Visibility Wind Dir Wind Speed Gust Speed Precip Events Conditions
12:54 AM 77.0 °F - 68.0 °F 74% 30.03 in 10.0 mi WSW 3.5 mph - N/A   Clear
1:54 AM 75.9 °F - 68.0 °F 76% 30.05 in 10.0 mi SW 3.5 mph - N/A   Clear
2:54 AM 72.0 °F - 68.0 °F 87% 30.05 in 10.0 mi SSE 4.6 mph - N/A   Clear
3:54 AM 71.1 °F - 68.0 °F 90% 30.06 in 10.0 mi South 6.9 mph - N/A   Clear
4:54 AM 71.1 °F - 68.0 °F 90% 30.06 in 10.0 mi SSW 3.5 mph - N/A   Clear
5:54 AM 70.0 °F - 66.9 °F 90% 30.07 in 9.0 mi South 3.5 mph - N/A   Clear
6:54 AM 69.1 °F - 66.9 °F 93% 30.09 in 10.0 mi South 4.6 mph - N/A   Clear
7:54 AM 72.0 °F - 69.1 °F 91% 30.10 in 10.0 mi South 3.5 mph - N/A   Clear
8:54 AM 78.1 °F - 70.0 °F 76% 30.11 in 10.0 mi SW 5.8 mph - N/A   Clear
9:54 AM 84.0 °F 88.4 °F 70.0 °F 63% 30.11 in 10.0 mi WNW 3.5 mph - N/A   Clear
10:54 AM 86.0 °F 91.5 °F 71.1 °F 61% 30.11 in 10.0 mi WSW 6.9 mph - N/A   Clear
11:54 AM 89.1 °F 95.0 °F 71.1 °F 55% 30.09 in 10.0 mi West 5.8 mph - N/A   Clear
12:54 PM 91.0 °F 95.2 °F 68.0 °F 47% 30.08 in 10.0 mi NW 5.8 mph - N/A   Clear
1:54 PM 91.9 °F 95.9 °F 68.0 °F 45% 30.06 in 10.0 mi Variable 3.5 mph - N/A   Clear
2:54 PM 93.9 °F 98.6 °F 68.0 °F 43% 30.04 in 10.0 mi Variable 4.6 mph - N/A   Partly Cloudy
3:54 PM 91.9 °F 95.9 °F 68.0 °F 45% 30.04 in 10.0 mi Variable 3.5 mph - N/A   Clear
4:54 PM 91.0 °F 95.6 °F 69.1 °F 48% 30.02 in 10.0 mi Variable 3.5 mph - N/A   Clear
5:54 PM 87.1 °F 94.5 °F 73.0 °F 63% 30.02 in 10.0 mi SSE 3.5 mph - N/A   Clear
7:54 PM 82.9 °F 86.5 °F 69.1 °F 63% 30.02 in 10.0 mi SE 4.6 mph - N/A   Clear
8:54 PM 78.1 °F - 70.0 °F 76% 30.03 in 10.0 mi SE 4.6 mph - N/A   Clear
9:54 PM 75.9 °F - 69.1 °F 79% 30.04 in 10.0 mi SE 3.5 mph - N/A   Clear
10:54 PM 77.0 °F - 68.0 °F 74% 30.04 in 10.0 mi SE 4.6 mph - N/A   Clear
11:54 PM 75.9 °F - 68.0 °F 76% 30.03 in 10.0 mi ESE 4.6 mph - N/A   Clear